This demonstration page uses our WeatherBlox Daily Observations layout. Learn more.

Left ArrowRight Arrow

39.08367, -84.50855

Hourly Observations for May 20, 2020

Temp ( °F °C ) Dew Point ( °F °C ) Humidity (%) Winds ( mph kmh ) Pressure ( in mb ) Visibility ( mi km ) Precip ( " mm )
12:53 am 00:53 Cloudy 58 14.4 54 12.2 87 87 ENE 8 13 29.99 1016 10 16.0934 0 0
1:32 am 01:32 Cloudy 57 13.9 53 11.7 87 87 E 8 13 30 1016 10 16.0934 0 0
1:53 am 01:53 Cloudy 57 13.9 53 11.7 87 87 ENE 9 15 29.99 1016 10 16.0934 0 0
2:53 am 02:53 Cloudy with Light Rain 56 13.3 53 11.7 90 90 ENE 8 13 29.99 1016 8 12.87472 0.01 0.254
3:53 am 03:53 Cloudy with Light Rain 55 12.8 52 11.1 90 90 ENE 9 15 29.99 1016 10 16.0934 0.001 0.001
4:53 am 04:53 Cloudy with Light Rain 54 12.2 52 11.1 93 93 ENE 9 15 30.01 1016 7 11.26538 0.05 1.27
5:44 am 05:44 Cloudy 53 11.7 51 10.6 93 93 ENE 10 17 30.02 1017 10 16.0934 0.02 0.508
5:53 am 05:53 Cloudy 53 11.7 50 10 89 89 ENE 13 20 30.02 1017 10 16.0934 0.02 0.508
6:10 am 06:10 Cloudy 53 11.7 50 10 89 89 NE 9 15 30.03 1017 10 16.0934 0 0
6:53 am 06:53 Cloudy 52 11.1 49 9.4 89 89 NE 10 17 30.04 1017 10 16.0934 0 0
7:53 am 07:53 Cloudy with Light Rain 52 11.1 48 8.9 86 86 ENE 14 22 30.05 1018 10 16.0934 0.001 0.001
8:53 am 08:53 Cloudy 52 11.1 48 8.9 86 86 ENE 9 15 30.07 1018 10 16.0934 0.001 0.001
9:53 am 09:53 Cloudy 53 11.7 48 8.9 83 83 E 8 13 30.09 1019 10 16.0934 0 0
10:53 am 10:53 Cloudy 55 12.8 49 9.4 80 80 E 9 15 30.09 1019 10 16.0934 0 0
11:53 am 11:53 Cloudy 55 12.8 48 8.9 77 77 E 12 19 30.1 1019 10 16.0934 0 0
12:53 pm 12:53 Cloudy 56 13.3 49 9.4 77 77 E 10 17 30.1 1019 10 16.0934 0 0
1:53 pm 13:53 Cloudy 56 13.3 48 8.9 75 75 E 12 19 30.1 1019 10 16.0934 0 0
2:53 pm 14:53 Cloudy 57 13.9 49 9.4 74 74 ENE 12 19 30.1 1019 10 16.0934 0 0
3:53 pm 15:53 Cloudy 57 13.9 49 9.4 74 74 E 13 20 30.09 1019 10 16.0934 0 0
4:53 pm 16:53 Cloudy 59 15 50 10 72 72 E 9 15 30.08 1019 10 16.0934 0 0
5:53 pm 17:53 Mostly Cloudy 59 15 50 10 72 72 E 13 20 30.08 1019 10 16.0934 0 0
6:53 pm 18:53 Partly Cloudy 59 15 50 10 72 72 E 9 15 30.09 1019 10 16.0934 0 0
7:53 pm 19:53 Mostly Cloudy 56 13.3 49 9.4 77 77 VRB 7 11 30.1 1019 10 16.0934 0 0
8:53 pm 20:53 Mostly Cloudy 55 12.8 49 9.4 80 80 ENE 8 13 30.11 1020 10 16.0934 0 0
9:53 pm 21:53 Cloudy 55 12.8 50 10 83 83 ENE 6 9 30.11 1020 10 16.0934 0 0
10:53 pm 22:53 Cloudy 54 12.2 50 10 87 87 NE 9 15 30.12 1020 10 16.0934 0 0
11:53 pm 23:53 Cloudy 55 12.8 51 10.6 87 87 ENE 8 13 30.11 1020 10 16.0934 0 0

Powered by AerisWeather